Temp
-13 -13 -12 -12 -11 -11 -11 -10 -10 -10 -9 -9 -9 -8 -8 -8 -8 -8 -8 -8 -8 -8 -8 -8 -8 -8 -8 -8 -8 -8 -8 -7 -8 -8 -8 -8 -8 -8 -8 -8 -8 -8 -9 -8 -9
-13 -13 -13 -13 -12 -11 -11 -11 -10 -10 -10 -9 -9 -9 -8 -8 -8 -8 -8 -8 -8 -8 -8 -8 -8 -8 -8 -8 -8 -8 -8 -8 -8 -8 -8 -8 -8 -9 -8 -8 -8 -8 -9 -8 -8
-14 -13 -13 -12 -13 -12 -12 -11 -11 -11 -10 -10 -10 -9 -9 -9 -8 -8 -9 -9 -8 -8 -8 -8 -8 -8 -8 -8 -8 -8 -8 -8 -8 -8 -9 -9 -9 -9 -9 -9 -9 -8 -9 -9 -9
-14 -14 -13 -13 -12 -13 -13 -12 -12 -11 -11 -10 -10 -10 -9 -9 -9 -9 -9 -9 -9 -9 -8 -8 -8 -8 -8 -8 -8 -8 -8 -8 -8 -8 -9 -9 -9 -8 -9 -9 -8 -9 -8 -8 -9
-14 -14 -14 -14 -13 -13 -13 -13 -12 -12 -11 -11 -10 -10 -10 -10 -10 -9 -9 -9 -9 -9 -9 -8 -8 -8 -8 -8 -8 -8 -8 -9 -8 -9 -9 -9 -9 -9 -9 -9 -9 -8 -9 -9 -9
-15 -14 -14 -14 -14 -13 -13 -13 -13 -12 -12 -11 -11 -10 -10 -10 -10 -10 -9 -9 -9 -9 -9 -9 -9 -9 -8 -8 -8 -8 -8 -8 -8 -8 -9 -9 -9 -9 -9 -8 -8 -8 -9 -9 -9
-15 -16 -15 -14 -14 -15 -14 -13 -13 -13 -13 -12 -12 -11 -11 -11 -10 -10 -10 -10 -10 -9 -9 -9 -9 -9 -9 -8 -8 -8 -8 -8 -8 -8 -9 -9 -9 -9 -9 -8 -8 -8 -9 -9 -9
-15 -16 -15 -15 -15 -14 -14 -14 -14 -13 -13 -13 -12 -12 -12 -11 -11 -11 -10 -10 -10 -10 -10 -9 -9 -9 -9 -9 -9 -8 -9 -8 -8 -8 -8 -8 -9 -9 -8 -8 -8 -8 -8 -9 -9
-16 -16 -16 -16 -15 -14 -14 -14 -14 -14 -13 -13 -12 -12 -12 -12 -12 -11 -11 -11 -11 -10 -10 -10 -9 -9 -9 -9 -9 -9 -8 -9 -8 -8 -8 -8 -9 -9 -9 -9 -8 -8 -8 -8 -9
-16 -16 -16 -16 -16 -15 -15 -14 -14 -13 -14 -13 -13 -13 -12 -13 -13 -12 -12 -11 -11 -11 -10 -10 -10 -10 -10 -9 -9 -9 -9 -9 -9 -9 -8 -8 -9 -9 -9 -9 -9 -9 -8 -8 -9
-16 -16 -16 -16 -16 -16 -16 -15 -14 -14 -14 -15 -13 -13 -13 -13 -13 -13 -13 -12 -12 -11 -11 -10 -10 -10 -11 -10 -10 -9 -9 -9 -9 -9 -9 -8 -9 -9 -9 -9 -9 -8 -8 -8 -9
-16 -16 -17 -16 -16 -16 -16 -16 -15 -15 -14 -14 -15 -14 -14 -13 -13 -13 -13 -13 -13 -12 -11 -11 -10 -11 -11 -10 -10 -10 -10 -10 -9 -9 -9 -9 -9 -9 -9 -9 -9 -9 -9 -9 -8
-16 -17 -17 -17 -17 -16 -16 -16 -16 -15 -15 -15 -14 -15 -14 -14 -14 -14 -14 -13 -13 -13 -12 -12 -12 -11 -11 -11 -11 -10 -10 -10 -10 -10 -9 -9 -9 -9 -9 -9 -9 -9 -9 -9 -9
-17 -17 -17 -17 -17 -17 -16 -16 -17 -17 -16 -15 -15 -15 -15 -15 -14 -14 -14 -14 -13 -13 -13 -13 -12 -12 -12 -12 -11 -11 -11 -11 -10 -10 -10 -9 -9 -10 -9 -9 -9 -9 -9 -10 -9
-17 -17 -17 -17 -17 -17 -17 -17 -17 -18 -20 -16 -16 -14 -14 -15 -14 -14 -14 -13 -14 -14 -13 -13 -13 -13 -12 -12 -12 -12 -12 -12 -11 -11 -10 -10 -10 -10 -10 -10 -10 -9 -10 -10 -10
-18 -18 -18 -17 -17 -17 -18 -17 -18 -19 -20 -17 -16 -16 -15 -15 -14 -15 -15 -15 -14 -14 -13 -13 -13 -13 -13 -13 -13 -12 -12 -12 -12 -11 -10 -11 -10 -10 -10 -10 -10 -10 -10 -10 -10
-18 -18 -18 -18 -18 -18 -18 -18 -19 -20 -19 -18 -17 -16 -16 -15 -15 -15 -15 -15 -15 -14 -14 -14 -14 -13 -13 -13 -13 -13 -13 -13 -12 -12 -11 -11 -11 -11 -11 -10 -10 -10 -10 -10 -10
-19 -19 -19 -19 -18 -18 -19 -20 -21 -20 -19 -18 -17 -18 -17 -16 -16 -15 -15 -15 -15 -15 -14 -14 -14 -13 -13 -13 -13 -13 -13 -13 -13 -12 -12 -12 -11 -11 -11 -11 -10 -10 -10 -10 -11
-21 -20 -20 -19 -19 -20 -21 -22 -21 -19 -19 -18 -18 -18 -18 -17 -16 -16 -15 -15 -15 -15 -15 -15 -14 -14 -14 -14 -14 -13 -13 -14 -13 -13 -12 -12 -11 -11 -11 -11 -11 -11 -11 -11 -11
-25 -24 -21 -21 -21 -21 -22 -21 -20 -20 -19 -19 -19 -19 -18 -17 -17 -17 -16 -15 -15 -15 -15 -15 -15 -15 -15 -14 -14 -13 -14 -14 -14 -13 -12 -12 -12 -12 -12 -12 -12 -12 -12 -12 -12
-28 -27 -23 -23 -23 -23 -22 -22 -20 -20 -20 -19 -18 -19 -19 -18 -17 -17 -16 -16 -16 -16 -15 -15 -15 -15 -15 -14 -14 -14 -13 -14 -14 -14 -13 -12 -12 -12 -12 -13 -13 -13 -13 -13 -13
-29 -29 -27 -26 -25 -24 -22 -21 -20 -20 -20 -19 -19 -19 -19 -18 -18 -18 -17 -17 -17 -16 -15 -15 -15 -15 -15 -15 -15 -14 -14 -14 -14 -14 -14 -14 -13 -13 -13 -13 -13 -14 -14 -14 -14
-31 -29 -28 -27 -26 -26 -23 -23 -21 -21 -22 -21 -20 -20 -19 -18 -18 -18 -18 -17 -17 -16 -16 -16 -16 -16 -15 -15 -15 -14 -15 -15 -15 -15 -14 -14 -13 -14 -14 -14 -14 -14 -14 -14 -14
-31 -30 -30 -28 -27 -26 -25 -23 -22 -22 -22 -21 -21 -20 -19 -19 -19 -18 -18 -17 -17 -17 -16 -16 -16 -16 -15 -15 -15 -15 -15 -16 -15 -15 -15 -15 -15 -15 -15 -15 -15 -15 -15 -15 -14
-32 -31 -30 -29 -29 -27 -26 -24 -23 -23 -22 -22 -21 -21 -20 -19 -19 -19 -18 -18 -18 -17 -17 -17 -16 -16 -16 -16 -16 -16 -16 -16 -15 -15 -15 -16 -16 -16 -16 -15 -15 -15 -15 -15 -15
-32 -31 -30 -30 -29 -28 -27 -26 -25 -24 -23 -22 -22 -21 -20 -19 -19 -18 -18 -18 -18 -18 -18 -18 -17 -17 -17 -17 -17 -17 -17 -16 -16 -16 -15 -16 -16 -16 -16 -15 -16 -16 -16 -15 -15
-31 -31 -30 -31 -29 -28 -27 -27 -25 -24 -24 -23 -21 -21 -21 -20 -20 -19 -20 -20 -19 -19 -18 -19 -18 -18 -18 -18 -17 -17 -16 -17 -16 -17 -17 -16 -17 -17 -16 -16 -16 -16 -15 -15 -15
Height
5738 5741 5745 5748 5751 5754 5757 5759 5763 5766 5769 5773 5777 5782 5786 5790 5795 5798 5801 5804 5806 5810 5812 5815 5817 5819 5821 5822 5823 5825 5826 5826 5828 5829 5829 5829 5829 5828 5828 5828 5827 5825 5825 5823 5821
5731 5734 5737 5741 5744 5747 5750 5753 5756 5760 5763 5766 5770 5776 5780 5784 5789 5793 5797 5799 5802 5805 5807 5810 5813 5815 5818 5819 5821 5822 5823 5824 5825 5826 5827 5827 5828 5827 5827 5826 5826 5825 5822 5821 5819
5721 5726 5729 5732 5736 5740 5743 5746 5749 5752 5756 5759 5764 5769 5774 5778 5783 5786 5791 5794 5797 5800 5803 5805 5808 5812 5814 5815 5817 5819 5820 5823 5823 5824 5825 5825 5825 5825 5825 5824 5823 5822 5821 5818 5816
5710 5716 5721 5725 5728 5731 5735 5739 5742 5746 5749 5752 5757 5761 5767 5771 5777 5780 5785 5789 5791 5795 5798 5801 5803 5807 5810 5812 5814 5816 5816 5819 5820 5821 5822 5822 5823 5823 5822 5822 5820 5819 5819 5817 5815
5702 5706 5709 5712 5719 5722 5725 5730 5734 5738 5742 5745 5749 5754 5759 5765 5768 5773 5777 5782 5786 5789 5792 5795 5799 5801 5805 5807 5810 5812 5813 5815 5817 5818 5818 5819 5820 5819 5819 5819 5817 5815 5814 5814 5811
5691 5695 5699 5702 5708 5712 5717 5721 5726 5730 5733 5737 5741 5746 5751 5757 5761 5765 5769 5774 5779 5783 5785 5790 5792 5797 5799 5803 5805 5808 5810 5812 5814 5815 5815 5817 5817 5816 5816 5816 5815 5813 5810 5808 5807
5681 5685 5689 5692 5696 5701 5706 5711 5715 5721 5725 5728 5733 5737 5743 5747 5753 5757 5762 5766 5771 5775 5780 5782 5787 5790 5795 5796 5800 5803 5805 5807 5810 5811 5813 5813 5814 5813 5812 5812 5812 5810 5809 5807 5804
5673 5675 5678 5682 5687 5689 5695 5700 5705 5710 5715 5719 5723 5729 5735 5739 5744 5749 5754 5759 5763 5767 5771 5776 5779 5784 5787 5791 5793 5796 5800 5802 5804 5807 5808 5810 5808 5809 5809 5808 5807 5807 5806 5805 5802
5665 5667 5669 5673 5677 5678 5683 5688 5694 5699 5703 5709 5715 5719 5726 5731 5736 5739 5745 5750 5755 5760 5763 5767 5772 5776 5780 5783 5788 5791 5794 5795 5798 5801 5803 5806 5805 5804 5805 5804 5804 5803 5803 5803 5801
5653 5657 5659 5663 5667 5669 5673 5676 5680 5686 5692 5698 5704 5710 5717 5723 5726 5730 5735 5740 5746 5750 5755 5759 5764 5768 5773 5778 5783 5783 5785 5789 5792 5795 5797 5799 5802 5800 5799 5801 5800 5799 5798 5797 5796
5639 5644 5647 5652 5655 5657 5658 5667 5670 5675 5681 5688 5693 5698 5705 5710 5716 5720 5726 5730 5735 5741 5746 5751 5756 5763 5767 5768 5769 5774 5779 5782 5785 5788 5789 5792 5797 5794 5794 5794 5795 5795 5794 5793 5791
5623 5629 5634 5637 5642 5644 5646 5655 5663 5666 5668 5671 5676 5684 5692 5697 5704 5709 5716 5722 5727 5732 5736 5742 5750 5753 5755 5760 5764 5768 5772 5775 5776 5781 5783 5782 5790 5789 5789 5789 5789 5790 5788 5787 5786
5606 5612 5618 5622 5628 5633 5640 5644 5650 5652 5651 5657 5661 5669 5681 5685 5692 5699 5705 5711 5717 5722 5728 5732 5740 5743 5746 5751 5755 5760 5764 5768 5769 5773 5774 5778 5782 5783 5783 5782 5784 5785 5783 5782 5781
5585 5593 5600 5605 5613 5620 5629 5635 5635 5635 5631 5642 5648 5653 5664 5671 5678 5688 5693 5700 5706 5713 5717 5721 5728 5733 5738 5743 5748 5751 5756 5758 5761 5763 5766 5770 5773 5777 5775 5778 5779 5779 5778 5776 5775
5564 5572 5580 5587 5597 5606 5616 5620 5619 5618 5612 5622 5633 5642 5649 5656 5670 5677 5682 5689 5697 5702 5709 5717 5722 5726 5730 5735 5737 5743 5747 5750 5752 5754 5757 5761 5763 5769 5769 5772 5771 5772 5772 5771 5770
5539 5548 5557 5570 5582 5593 5598 5605 5600 5596 5589 5606 5619 5629 5636 5645 5653 5662 5669 5679 5685 5689 5698 5702 5709 5715 5721 5726 5729 5734 5738 5741 5743 5746 5747 5752 5754 5758 5761 5763 5764 5765 5765 5765 5764
5513 5524 5535 5546 5566 5572 5579 5581 5574 5566 5586 5594 5609 5620 5625 5634 5642 5647 5656 5664 5672 5679 5686 5694 5700 5707 5712 5717 5721 5725 5729 5732 5734 5735 5739 5744 5745 5749 5751 5753 5756 5758 5759 5758 5757
5485 5497 5510 5528 5541 5550 5555 5557 5548 5561 5576 5589 5600 5607 5614 5619 5626 5636 5644 5650 5658 5667 5676 5682 5689 5696 5703 5708 5714 5716 5719 5723 5723 5726 5731 5732 5734 5739 5743 5743 5746 5749 5750 5751 5750
5454 5466 5482 5504 5517 5526 5530 5529 5535 5556 5571 5579 5585 5593 5603 5609 5617 5623 5632 5641 5649 5658 5667 5672 5677 5684 5690 5696 5702 5705 5708 5715 5715 5716 5720 5723 5726 5730 5733 5735 5737 5739 5740 5741 5742
5423 5436 5458 5482 5489 5494 5495 5508 5524 5539 5554 5562 5569 5580 5594 5602 5606 5613 5620 5631 5638 5646 5653 5657 5663 5671 5677 5684 5688 5693 5700 5702 5704 5707 5710 5713 5715 5720 5724 5725 5728 5730 5732 5733 5734
5399 5409 5437 5458 5461 5461 5463 5486 5514 5528 5538 5551 5560 5570 5581 5589 5599 5604 5612 5621 5628 5633 5639 5644 5653 5660 5665 5671 5678 5684 5686 5691 5696 5697 5700 5703 5706 5712 5714 5716 5719 5721 5723 5724 5725
5378 5388 5412 5430 5433 5433 5451 5475 5502 5515 5523 5532 5545 5557 5569 5581 5585 5594 5601 5611 5616 5621 5626 5637 5641 5646 5654 5661 5665 5670 5675 5679 5682 5688 5692 5694 5697 5699 5702 5706 5709 5712 5713 5715 5716
5357 5374 5390 5405 5408 5416 5448 5461 5481 5496 5508 5521 5534 5546 5556 5567 5574 5584 5592 5599 5606 5611 5617 5622 5625 5633 5640 5647 5652 5658 5665 5670 5673 5677 5680 5682 5686 5691 5694 5696 5697 5700 5703 5705 5706
5345 5357 5373 5377 5395 5407 5430 5446 5462 5481 5495 5508 5521 5533 5540 5550 5561 5573 5582 5590 5595 5600 5605 5611 5617 5624 5632 5640 5646 5649 5655 5658 5661 5664 5671 5675 5677 5681 5685 5686 5688 5691 5694 5696 5699
5329 5338 5357 5360 5373 5394 5412 5433 5447 5460 5479 5495 5506 5518 5530 5543 5552 5559 5571 5580 5584 5590 5595 5601 5607 5615 5621 5626 5632 5639 5644 5647 5652 5659 5660 5668 5669 5672 5675 5678 5680 5683 5685 5688 5691
5316 5328 5343 5355 5373 5386 5399 5410 5427 5450 5465 5478 5495 5514 5521 5533 5546 5557 5564 5570 5575 5583 5587 5593 5600 5605 5611 5617 5622 5627 5633 5638 5643 5648 5652 5658 5662 5664 5667 5669 5671 5674 5676 5679 5681
5306 5322 5333 5347 5360 5369 5381 5402 5419 5440 5455 5471 5497 5506 5510 5527 5537 5545 5548 5555 5560 5568 5576 5583 5589 5597 5602 5607 5611 5618 5626 5631 5637 5641 5645 5648 5656 5656 5659 5662 5663 5665 5666 5669 5672
Wind_Speed
37 36 36 35 37 36 38 41 40 38 37 37 37 39 39 37 36 33 31 29 27 25 24 22 21 19 17 16 13 12 11 8 4 4 2 1 4 7 7 9 12 15 13 18 17
42 39 37 36 37 38 37 39 42 41 39 38 38 38 40 40 38 36 34 31 29 28 27 24 23 21 19 19 16 14 14 10 8 7 3 2 2 5 8 8 11 15 17 19 21
56 44 41 42 39 39 39 39 40 43 43 41 39 39 39 39 39 38 36 34 32 30 29 27 25 23 22 21 20 16 17 12 12 8 5 3 1 4 7 8 10 15 15 18 22
36 61 63 50 44 42 40 40 41 41 45 44 42 40 40 39 39 39 38 37 34 33 31 29 27 26 25 24 22 19 22 16 15 11 7 6 3 7 8 12 14 15 17 17 19
35 41 39 66 50 46 43 41 42 42 43 46 45 43 42 40 40 40 40 38 37 35 34 32 30 29 27 26 24 23 23 21 17 15 10 8 6 8 10 13 16 19 20 20 22
37 36 37 37 63 52 46 43 44 44 43 44 47 47 45 42 42 41 40 39 39 38 36 35 33 31 29 28 26 26 25 23 20 17 14 12 10 10 11 15 19 19 21 23 24
41 41 39 37 34 54 50 48 46 47 46 46 45 47 48 47 44 43 42 41 40 40 38 37 36 34 32 32 30 29 28 26 24 23 18 16 16 14 13 16 20 22 23 26 28
36 44 37 42 42 37 56 54 49 50 50 48 47 46 46 49 47 46 45 43 42 42 41 40 39 36 35 34 33 33 31 31 29 28 23 21 19 18 18 18 19 22 24 26 29
36 36 46 45 44 43 41 53 58 55 52 52 50 48 47 45 47 49 48 47 45 44 44 43 41 39 38 36 36 34 34 33 33 33 29 27 22 21 20 19 21 22 24 25 26
42 40 37 47 49 46 46 49 54 67 58 57 54 51 50 46 45 46 49 49 49 48 47 46 45 43 40 36 35 39 38 36 35 33 33 30 25 25 22 20 22 23 26 28 30
50 48 43 42 49 55 53 49 43 53 53 59 63 59 54 49 47 46 46 48 50 51 49 49 48 43 39 41 42 40 38 38 38 37 37 35 27 29 27 24 24 24 26 28 30
56 53 51 51 49 50 56 56 62 51 55 54 62 62 57 54 52 49 48 47 46 46 49 50 48 44 46 45 43 41 39 37 41 38 39 39 30 30 30 28 27 25 26 29 31
64 61 57 56 57 53 48 57 58 52 49 56 59 58 59 55 53 52 50 49 47 46 46 45 44 46 45 43 43 42 40 39 41 39 42 42 36 34 32 34 30 27 27 29 31
71 68 65 62 61 59 51 50 58 59 50 58 58 65 65 61 56 54 53 51 51 48 47 47 46 44 44 41 41 41 39 40 40 41 41 42 42 35 37 34 32 31 29 28 30
79 75 72 69 65 61 57 52 53 59 57 58 55 63 64 69 66 60 54 51 51 51 49 47 44 43 43 41 41 40 38 39 41 42 42 42 44 37 37 34 32 33 31 30 29
86 83 80 75 69 65 62 59 62 56 64 66 55 51 62 67 61 65 68 63 56 54 51 50 48 46 44 42 41 41 40 39 40 42 46 41 42 42 38 36 34 32 32 31 31
94 89 86 81 73 72 69 69 69 68 63 67 56 45 50 59 63 63 63 67 70 59 53 51 48 45 44 44 44 42 40 40 42 43 44 41 42 41 39 37 36 33 33 32 31
100 97 91 84 80 78 75 76 70 67 61 64 61 54 48 46 54 63 68 69 66 64 58 52 50 48 47 45 44 42 42 42 43 44 43 43 44 41 38 39 37 35 34 33 31
102 101 96 90 84 81 80 65 74 75 70 65 64 58 55 47 45 54 56 58 65 64 62 58 57 52 49 47 46 47 46 42 44 46 45 45 44 42 40 40 38 37 34 31 27
90 92 100 85 86 86 87 88 61 68 70 61 62 64 60 37 47 46 49 58 58 61 64 66 65 62 55 51 52 51 48 48 48 48 47 47 46 44 41 39 37 36 30 27 25
79 80 93 81 84 89 95 91 87 77 72 67 64 58 64 63 47 46 44 42 42 54 60 61 60 56 56 55 52 51 52 51 49 49 49 49 48 43 42 39 36 33 32 28 26
73 76 79 76 82 90 94 92 86 83 78 75 68 56 55 58 50 58 47 44 41 40 51 54 53 59 61 56 54 51 50 49 47 47 46 46 47 47 46 42 40 35 34 32 31
66 74 77 74 82 86 87 89 87 84 75 75 70 64 55 58 63 50 45 48 46 43 45 48 52 53 56 58 61 61 59 57 55 53 53 49 51 45 43 41 36 31 27 25 26
59 68 67 76 79 83 82 86 89 86 79 78 65 62 59 57 52 50 42 45 46 47 44 46 49 48 46 44 44 47 44 43 46 49 46 43 39 35 31 31 31 28 26 26 26
57 68 59 72 76 79 82 82 86 86 80 76 68 62 71 59 54 60 60 46 47 46 40 43 45 46 47 45 43 41 39 36 40 36 37 28 29 29 31 31 31 31 31 30 28
67 73 77 69 53 73 78 80 85 84 78 79 75 59 52 59 55 56 56 54 54 44 39 42 36 39 41 43 43 40 39 40 39 35 33 28 28 29 30 32 31 31 32 31 29
59 64 58 68 65 44 76 75 80 82 78 72 71 66 71 61 57 62 60 59 60 55 49 42 36 38 43 41 42 41 36 35 35 35 34 34 26 30 32 35 38 38 39 39 37
Wind_Direction
238 240 243 240 240 237 232 229 228 227 224 223 223 223 223 222 225 223 221 221 225 231 235 234 234 233 233 230 228 224 230 221 211 221 252 336 339 348 346 358 352 358 356 343 341
237 237 237 244 241 239 237 233 228 229 227 226 225 224 224 225 225 227 225 223 224 228 232 233 236 233 230 232 226 220 227 218 218 230 230 283 350 332 347 6 0 2 353 348 350
234 236 241 236 241 242 237 237 234 229 229 227 227 226 225 225 226 228 229 226 224 226 230 232 234 236 233 231 227 217 226 210 229 223 236 251 318 330 354 7 354 14 5 348 342
246 236 244 242 238 239 241 238 235 235 231 228 227 227 227 225 226 227 229 229 227 226 227 230 232 235 235 235 230 225 231 222 233 238 243 266 306 341 8 1 8 4 11 360 349
249 241 248 234 237 239 236 240 237 234 235 232 229 228 228 227 227 227 228 231 230 227 229 227 231 234 236 237 234 233 235 237 235 243 246 260 297 323 343 348 352 356 357 359 353
253 248 243 240 234 236 238 237 241 237 234 234 232 230 228 229 229 228 227 228 231 230 228 231 230 234 234 239 238 236 237 240 246 248 254 266 283 301 320 332 336 343 347 348 354
259 259 246 247 243 235 232 237 237 240 237 234 233 232 230 230 229 230 229 228 228 230 232 231 234 232 235 232 237 235 237 245 247 254 258 266 275 285 301 316 326 331 340 344 353
258 256 251 249 255 245 239 234 240 239 239 237 233 234 234 231 230 231 231 230 229 229 231 233 234 236 235 237 236 237 238 240 249 254 257 262 265 275 291 299 310 321 328 337 345
252 257 248 249 252 250 249 239 240 238 237 239 237 233 234 233 233 231 231 232 232 232 232 233 235 237 238 239 241 241 241 245 247 252 253 256 259 267 279 292 301 309 317 327 335
251 250 252 248 250 229 231 244 240 237 240 240 239 237 235 232 234 233 234 232 233 234 234 235 236 238 240 243 247 245 245 245 249 251 254 255 258 270 273 285 294 303 313 321 326
252 255 251 248 246 244 237 234 223 243 243 244 241 239 236 232 232 233 234 234 233 235 236 238 239 240 244 243 242 244 247 248 248 248 252 254 254 267 275 285 290 298 306 314 320
251 250 252 253 248 248 252 240 238 244 245 244 237 235 231 231 230 229 232 234 235 235 236 239 241 241 241 244 248 248 248 249 251 249 252 253 251 259 273 279 288 297 302 309 316
248 249 249 250 252 249 250 251 233 234 231 237 241 239 229 230 231 231 229 232 233 234 235 237 239 240 241 242 244 247 248 249 250 251 251 254 254 258 267 275 283 290 296 305 312
247 247 248 247 249 251 244 248 252 248 238 231 228 238 236 228 230 232 231 231 231 233 234 235 235 238 240 241 244 247 246 248 250 251 254 255 256 257 261 270 279 285 292 302 309
247 246 246 246 246 247 247 246 246 249 253 237 228 232 233 230 231 231 230 231 233 235 235 237 238 239 241 240 241 244 245 248 249 251 253 255 258 256 262 268 273 279 288 298 304
246 246 245 245 243 245 245 242 244 237 240 241 234 234 230 231 235 234 233 232 233 234 234 236 236 237 239 241 243 244 245 248 250 252 254 255 260 261 265 267 271 280 287 293 300
243 244 244 242 241 242 242 241 242 238 245 245 240 236 234 227 227 233 235 235 230 231 231 235 237 239 241 242 243 244 245 248 250 252 257 259 260 264 267 270 273 278 284 291 295
240 240 241 239 238 237 237 234 231 231 240 249 239 235 236 227 225 227 232 231 231 231 233 235 237 239 240 242 245 246 245 248 252 254 256 258 261 265 267 271 276 280 283 287 287
239 238 236 236 234 231 228 228 233 236 238 244 246 235 233 237 231 228 228 232 234 236 234 236 239 238 239 239 241 243 245 249 251 254 256 258 261 265 268 272 277 280 283 284 285
235 235 236 230 229 226 224 224 224 235 233 232 239 240 235 226 227 223 224 226 228 232 237 237 239 241 239 240 240 241 243 244 248 253 257 260 262 265 269 274 275 276 276 278 278
229 229 233 224 224 224 222 224 223 226 232 231 234 234 234 227 224 221 221 225 229 231 232 235 232 235 235 238 240 242 244 246 248 252 256 260 263 267 268 269 272 276 277 273 263
222 224 225 220 219 224 224 225 227 223 228 230 233 234 231 229 230 234 232 232 229 226 228 232 233 235 238 235 237 240 241 243 243 248 254 259 263 266 266 268 273 274 269 265 261
217 218 221 219 219 223 222 222 222 222 222 227 230 230 232 235 238 235 234 232 232 229 223 217 221 227 231 235 238 242 247 248 250 252 255 254 261 261 268 271 267 264 261 252 245
212 212 214 220 220 222 220 220 220 220 221 223 226 224 223 221 229 219 216 222 220 218 225 226 225 226 232 239 240 239 240 240 242 245 249 252 253 255 254 256 260 263 262 258 249
210 205 209 218 219 218 218 216 218 217 217 219 220 221 225 224 229 229 225 222 222 219 229 234 235 234 233 229 228 229 229 229 232 235 237 238 243 245 249 253 259 262 263 262 257
205 206 210 213 222 222 219 217 213 216 215 216 214 207 216 225 225 229 227 227 234 231 237 226 225 228 228 227 231 229 229 231 233 235 238 242 246 250 251 256 258 259 260 261 263
204 198 209 214 208 217 220 219 214 211 215 219 219 222 225 223 225 226 233 233 233 234 231 226 228 231 232 226 227 228 231 235 236 239 240 238 242 247 258 262 265 266 266 266 263